Location: Moy Burn
(57.3833°N, 4.0667°W)
Time: 10:15:46
(UTC+00:00)

GP-B - Pass Details

Date: 08 August 2020
Orbit: 632 x 635 km, 89.8° (Epoch: 18 September)

Event Time Altitude Azimuth Distance (km) Brightness Sun altitude
Rises 21:18:22 0° 1° (N) 2,950 7.3 -7.6°
Reaches altitude 10° 21:20:36 10° 3° (N) 2,036 6.4 -7.8°
Maximum altitude 21:25:06 77° 90° (E) 658 3.1 -8.2°
Drops below altitude 10° 21:29:32 10° 177° (S) 2,019 5.2 -8.6°
Enters shadow 21:30:43 - 178° (S) 2,495 5.7 -8.7°
